[[{"header":{"parameterUnit":"m.s-1","parameterCategory":2,"la1":30.2992,"la2":30.254,"lo1":-89.0895,"lo2":-89.0443,"dy":0.0025,"dx":0.0025,"nx":19,"ny":19,"refTime":"2026-04-06T21:00:00:Z","depth":"0","parameterNumber":2,"parameterNumberName":"U-component_of_CURRENTS"},"data":[0,0,0,-0.3075,-0.3077,-0.3143,-0.3143,-0.313,-0.313,0,0,0,0,0,0,0,0,0,0,0,-0.3039,-0.304,-0.3075,-0.3077,-0.3143,-0.3143,-0.313,-0.313,0,0,0,0,0,0,0,0,0,0,0,-0.3039,-0.304,-0.3041,-0.3078,-0.3143,-0.3143,-0.313,-0.31,0,0,0,0,0,0,0,0,0,0,-0.3046,-0.3019,-0.304,-0.3041,-0.3078,-0.3143,-0.3143,-0.3099,-0.3102,-0.3078,0,-0.3098,0,-0.3127,-0.3129,-0.3129,0,0,0,-0.3057,-0.3017,-0.3056,-0.3041,-0.3079,-0.3143,-0.3108,-0.3101,-0.3104,-0.3081,-0.3098,-0.3099,-0.3126,-0.3129,-0.3128,-0.319,-0.3191,0,0,-0.3054,-0.3026,-0.3055,-0.3058,-0.3107,-0.3106,-0.311,-0.3104,-0.3095,-0.3098,-0.3099,-0.3126,-0.3128,-0.3128,-0.3189,-0.319,0,0,0,-0.3057,-0.3023,-0.3064,-0.3058,-0.3085,-0.3108,-0.3113,-0.3095,-0.3116,-0.31,-0.3126,-0.3128,-0.3128,-0.3188,-0.319,-0.3267,0,0,0,-0.3053,-0.3027,-0.3062,-0.3043,-0.3086,-0.3102,-0.3104,-0.3115,-0.3117,-0.3126,-0.3128,-0.3128,-0.3187,-0.3189,-0.3263,-0.3294,0,0,0,-0.3034,-0.3025,-0.3041,-0.3042,-0.3085,-0.3103,-0.3122,-0.3116,-0.3133,-0.3129,-0.3128,-0.3187,-0.3189,-0.3259,-0.3288,-0.3328,0,0,0,-0.2992,-0.3036,-0.304,-0.3102,-0.3084,-0.3179,-0.3122,-0.3162,-0.3167,-0.3128,-0.3188,-0.3189,-0.3258,-0.3285,-0.3325,-0.3329,-0.3346,0,0,-0.3033,-0.3039,-0.3083,-0.3091,-0.3191,-0.3167,-0.3255,-0.3224,-0.3185,-0.3176,-0.3179,-0.3264,-0.3288,-0.3327,-0.3442,-0.3455,0,0,0,-0.3089,-0.3113,-0.3147,-0.3202,-0.3263,-0.3306,-0.3295,-0.329,-0.3284,-0.3202,-0.3282,-0.3295,-0.3317,-0.3313,-0.3325,-0.3361,-0.3198,-0.3198,-0.3198,-0.3064,-0.3132,-0.3203,-0.3285,-0.3343,-0.3397,-0.3429,-0.3416,-0.3363,-0.3377,-0.3372,-0.3473,-0.3472,-0.348,-0.3519,-0.3388,-0.3389,-0.3389,-0.3389,-0.311,-0.3146,-0.3234,-0.332,-0.339,-0.345,-0.3529,-0.3513,-0.3538,-0.3473,-0.349,-0.3412,-0.3497,-0.3534,-0.3394,-0.3393,-0.3393,-0.3392,-0.3392,-0.3066,-0.3096,-0.3154,-0.3268,-0.3364,-0.3458,-0.3559,-0.3594,-0.3597,-0.3629,-0.359,-0.3588,-0.3606,-0.362,-0.3621,-0.3621,-0.3621,-0.3622,-0.3622,-0.2974,-0.3049,-0.308,-0.3215,-0.3271,-0.3391,-0.3556,-0.3622,-0.3683,-0.3679,-0.3679,-0.3658,-0.3543,-0.3518,-0.3627,-0.3626,-0.3625,-0.3625,-0.3625,-0.2891,-0.2915,-0.2963,-0.3014,-0.3174,-0.3264,-0.3486,-0.3665,-0.3745,-0.3773,-0.3793,-0.3707,-0.3678,-0.3668,-0.3645,-0.3781,-0.3781,-0.3781,-0.3781,-0.2784,-0.2823,-0.2829,-0.2888,-0.302,-0.319,-0.3353,-0.3573,-0.377,-0.3829,-0.388,-0.384,-0.3832,-0.3808,-0.3795,-0.3774,-0.3939,-0.394,-0.394,-0.2684,-0.2718,-0.2671,-0.2771,-0.2925,-0.3084,-0.3204,-0.3504,-0.3822,-0.395,-0.3939,-0.3932,-0.3873,-0.3857,-0.3813,-0.3792,-0.3752,0,0]},{"header":{"parameterUnit":"m.s-1","parameterCategory":2,"la1":30.2992,"la2":30.254,"lo1":-89.0895,"lo2":-89.0443,"dy":0.0025,"dx":0.0025,"nx":19,"ny":19,"refTime":"2026-04-06T21:00:00:Z","depth":"0","parameterNumber":3,"parameterNumberName":"V-component_of_CURRENTS"},"data":[0,0,0,-0.0314,-0.0311,-0.0139,-0.0138,0.0104,0.0106,0,0,0,0,0,0,0,0,0,0,0,-0.0381,-0.038,-0.0314,-0.0311,-0.0139,-0.0137,0.0104,0.0106,0,0,0,0,0,0,0,0,0,0,0,-0.0381,-0.038,-0.038,-0.0311,-0.0139,-0.0137,0.0103,-0.0026,0,0,0,0,0,0,0,0,0,0,-0.0193,-0.0276,-0.0381,-0.038,-0.031,-0.0139,-0.0137,-0.0032,-0.0018,0.0023,0,0.0029,0,0.0065,0.012,0.0121,0,0,0,-0.0285,-0.0288,-0.0237,-0.038,-0.0309,-0.0139,-0.0209,-0.0024,-0.0008,0.0042,0.0032,0.0042,0.0069,0.0121,0.0123,0.0278,0.0278,0,0,-0.0294,-0.0344,-0.0248,-0.0228,-0.029,-0.0215,-0.0204,-0.0014,-0.0011,0.0033,0.0048,0.0073,0.0123,0.0125,0.0278,0.0278,0,0,0,-0.0339,-0.0351,-0.0304,-0.0238,-0.0212,-0.021,-0.0198,-0.0019,-0.0004,0.005,0.0076,0.0124,0.0127,0.0278,0.0278,0.0167,0,0,0,-0.0344,-0.0379,-0.0309,-0.0336,-0.0217,-0.0119,-0.0208,-0.0017,0.0006,0.0075,0.0124,0.0129,0.0278,0.0278,0.017,0.0096,0,0,0,-0.0384,-0.0382,-0.037,-0.0339,-0.0275,-0.0121,-0.0093,-0.001,0.0021,0.0121,0.0129,0.0278,0.0278,0.0172,0.0102,0.0145,0,0,0,-0.0428,-0.0454,-0.0372,-0.0383,-0.0277,-0.019,-0.0093,-0.0012,0.0064,0.0125,0.0278,0.0278,0.0173,0.0105,0.0147,0.0232,0.0229,0,0,-0.0492,-0.0463,-0.0466,-0.0389,-0.0361,-0.0211,-0.0149,-0.0011,0.0087,0.0221,0.0226,0.0169,0.0102,0.0146,0.0247,0.0244,0,0,0,-0.0506,-0.052,-0.0492,-0.0452,-0.035,-0.0254,-0.0101,-0.0016,0.0112,0.013,0.0206,0.0168,0.0199,0.0255,0.0253,0.0655,0.0279,0.0279,0.0279,-0.0663,-0.0598,-0.0612,-0.0523,-0.0451,-0.0271,-0.0177,-0.0029,0.0071,0.0114,0.0105,0.0095,0.0153,0.0153,0.0566,0.0153,0.0152,0.0152,0.0152,-0.0795,-0.0811,-0.0713,-0.0709,-0.0568,-0.0489,-0.0252,-0.0152,0.0004,0.0059,0.0097,0.0168,0.0143,0.0586,0.0145,0.0146,0.0147,0.0148,0.0148,-0.092,-0.0923,-0.0902,-0.0881,-0.0809,-0.0631,-0.0529,-0.0334,-0.0122,-0.0086,0.0066,0.007,0.0439,-0.004,-0.0041,-0.0041,-0.0041,-0.0041,-0.0041,-0.1066,-0.1042,-0.11,-0.1056,-0.1045,-0.0956,-0.0688,-0.0537,-0.0235,-0.0049,-0.0046,0.0503,0.0038,0.0023,-0.0043,-0.0043,-0.0043,-0.0042,-0.0042,-0.123,-0.1211,-0.1317,-0.1338,-0.131,-0.1268,-0.099,-0.0587,-0.0362,-0.019,0.0547,0.0023,0.0081,0.0086,0.0076,0.0027,0.0027,0.0027,0.0027,-0.1344,-0.1342,-0.1498,-0.1572,-0.1575,-0.1418,-0.1176,-0.0656,0.0185,0.0664,0.0804,0.0916,0.0895,0.101,0.0994,0.1006,0.1195,0.1197,0.1199,-0.1453,-0.1491,-0.1632,-0.1692,-0.1699,-0.1569,-0.1298,-0.0628,0.0672,0.1288,0.1352,0.1303,0.1507,0.1442,0.1648,0.1594,0.1622,0,0]}],[{"header":{"parameterUnit":"m.s-1","parameterCategory":2,"la1":30.2992,"la2":30.254,"lo1":-89.0895,"lo2":-89.0443,"dy":0.0025,"dx":0.0025,"nx":19,"ny":19,"refTime":"2026-04-06T21:00:00:Z","depth":"2","parameterNumber":2,"parameterNumberName":"U-component_of_CURRENTS"},"data":[0,0,0,-0.3003,-0.3005,-0.3074,-0.3074,-0.306,-0.306,0,0,0,0,0,0,0,0,0,0,0,-0.2967,-0.2968,-0.3003,-0.3006,-0.3074,-0.3074,-0.306,-0.306,0,0,0,0,0,0,0,0,0,0,0,-0.2967,-0.2968,-0.2969,-0.3006,-0.3074,-0.3074,-0.3061,-0.3029,0,0,0,0,0,0,0,0,0,0,-0.2974,-0.2948,-0.2968,-0.2969,-0.3007,-0.3074,-0.3074,-0.3029,-0.3031,-0.3007,0,-0.3027,0,-0.3056,-0.3059,-0.3059,0,0,0,-0.2986,-0.2946,-0.2985,-0.2969,-0.3008,-0.3074,-0.3037,-0.3031,-0.3033,-0.301,-0.3028,-0.3028,-0.3056,-0.3059,-0.3059,-0.3119,-0.312,0,0,-0.2982,-0.2955,-0.2983,-0.2987,-0.3036,-0.3035,-0.304,-0.3033,-0.3026,-0.3028,-0.3029,-0.3056,-0.3059,-0.3059,-0.3118,-0.3119,0,0,0,-0.2985,-0.2952,-0.2993,-0.2986,-0.3014,-0.3038,-0.3043,-0.3025,-0.3046,-0.3029,-0.3055,-0.3059,-0.3058,-0.3117,-0.3118,-0.3196,0,0,0,-0.2981,-0.2956,-0.2991,-0.2972,-0.3015,-0.3032,-0.3034,-0.3045,-0.3047,-0.3056,-0.3059,-0.3058,-0.3116,-0.3118,-0.3192,-0.3224,0,0,0,-0.2962,-0.2954,-0.297,-0.2971,-0.3014,-0.3033,-0.3052,-0.3046,-0.3063,-0.3059,-0.3058,-0.3116,-0.3118,-0.3189,-0.3218,-0.3257,0,0,0,-0.292,-0.2964,-0.2969,-0.303,-0.3014,-0.3107,-0.3052,-0.3092,-0.3097,-0.3058,-0.3116,-0.3118,-0.3188,-0.3214,-0.3253,-0.3218,-0.3231,0,0,-0.2961,-0.2968,-0.3011,-0.3019,-0.3118,-0.3096,-0.3183,-0.3153,-0.3115,-0.3105,-0.3108,-0.3194,-0.3217,-0.3256,-0.3329,-0.3339,0,0,0,-0.3016,-0.304,-0.3074,-0.3128,-0.3188,-0.3232,-0.3223,-0.3218,-0.3213,-0.3132,-0.3211,-0.3224,-0.3246,-0.3217,-0.3226,-0.3128,-0.3127,-0.3127,-0.3127,-0.2993,-0.3059,-0.3129,-0.321,-0.3267,-0.3322,-0.3354,-0.3342,-0.3291,-0.3305,-0.3301,-0.3401,-0.3374,-0.338,-0.3316,-0.3317,-0.3317,-0.3317,-0.3317,-0.3038,-0.3074,-0.316,-0.3244,-0.3315,-0.3375,-0.3453,-0.3438,-0.3465,-0.3401,-0.3418,-0.3317,-0.3394,-0.3324,-0.3323,-0.3322,-0.3321,-0.3321,-0.332,-0.2995,-0.3024,-0.3082,-0.3195,-0.329,-0.3384,-0.3484,-0.3521,-0.3524,-0.3556,-0.3491,-0.3488,-0.3433,-0.3548,-0.3549,-0.3549,-0.3549,-0.355,-0.355,-0.2905,-0.2979,-0.301,-0.3144,-0.3199,-0.3318,-0.3483,-0.3548,-0.3592,-0.3576,-0.3575,-0.3479,-0.3471,-0.3446,-0.3555,-0.3554,-0.3554,-0.3553,-0.3553,-0.2824,-0.2848,-0.2896,-0.2946,-0.3103,-0.3125,-0.3396,-0.3558,-0.3646,-0.3661,-0.3589,-0.3586,-0.3553,-0.3544,-0.352,-0.3642,-0.3642,-0.3642,-0.3642,-0.2718,-0.2757,-0.2763,-0.2821,-0.2949,-0.303,-0.3048,-0.3091,-0.3273,-0.3244,-0.3259,-0.317,-0.3178,-0.3116,-0.3117,-0.3081,-0.3088,-0.3086,-0.3085,-0.262,-0.2654,-0.2607,-0.2705,-0.2855,-0.2856,-0.2666,-0.2459,-0.2644,-0.3047,-0.2993,-0.3638,-0.3549,-0.3545,-0.3481,-0.3471,-0.3426,0,0]},{"header":{"parameterUnit":"m.s-1","parameterCategory":2,"la1":30.2992,"la2":30.254,"lo1":-89.0895,"lo2":-89.0443,"dy":0.0025,"dx":0.0025,"nx":19,"ny":19,"refTime":"2026-04-06T21:00:00:Z","depth":"2","parameterNumber":3,"parameterNumberName":"V-component_of_CURRENTS"},"data":[0,0,0,-0.0308,-0.0305,-0.0134,-0.0133,0.0107,0.0108,0,0,0,0,0,0,0,0,0,0,0,-0.0374,-0.0373,-0.0308,-0.0305,-0.0134,-0.0133,0.0106,0.0108,0,0,0,0,0,0,0,0,0,0,0,-0.0374,-0.0373,-0.0373,-0.0304,-0.0135,-0.0133,0.0106,-0.0022,0,0,0,0,0,0,0,0,0,0,-0.0188,-0.027,-0.0374,-0.0373,-0.0304,-0.0135,-0.0133,-0.0028,-0.0014,0.0027,0,0.0032,0,0.0068,0.0123,0.0123,0,0,0,-0.0278,-0.0282,-0.0231,-0.0373,-0.0303,-0.0135,-0.0204,-0.002,-0.0004,0.0045,0.0036,0.0045,0.0072,0.0124,0.0125,0.0279,0.0279,0,0,-0.0288,-0.0337,-0.0243,-0.0222,-0.0285,-0.0209,-0.0199,-0.0011,-0.0008,0.0037,0.0051,0.0076,0.0125,0.0127,0.0279,0.0279,0,0,0,-0.0333,-0.0344,-0.0298,-0.0232,-0.0207,-0.0205,-0.0193,-0.0016,-0.0,0.0054,0.0079,0.0127,0.0129,0.0279,0.0279,0.0169,0,0,0,-0.0337,-0.0372,-0.0303,-0.0329,-0.0212,-0.0114,-0.0203,-0.0013,0.001,0.0078,0.0127,0.0131,0.0279,0.0279,0.0171,0.0098,0,0,0,-0.0377,-0.0375,-0.0364,-0.0333,-0.0269,-0.0117,-0.0089,-0.0007,0.0024,0.0123,0.0132,0.0279,0.0279,0.0174,0.0104,0.0146,0,0,0,-0.042,-0.0447,-0.0365,-0.0376,-0.0271,-0.0186,-0.0089,-0.0008,0.0067,0.0128,0.0279,0.0279,0.0174,0.0107,0.0149,0.0216,0.0212,0,0,-0.0485,-0.0456,-0.046,-0.0383,-0.0356,-0.0206,-0.0145,-0.0008,0.0089,0.0223,0.0227,0.017,0.0104,0.0147,0.0232,0.0227,0,0,0,-0.0499,-0.0513,-0.0486,-0.0446,-0.0345,-0.025,-0.0098,-0.0013,0.0114,0.0132,0.0207,0.0169,0.02,0.0247,0.0243,0.028,0.028,0.028,0.028,-0.0655,-0.0591,-0.0605,-0.0517,-0.0446,-0.0267,-0.0175,-0.0026,0.0073,0.0115,0.0107,0.0096,0.0144,0.0142,0.0154,0.0154,0.0154,0.0153,0.0153,-0.0787,-0.0804,-0.0706,-0.0702,-0.0563,-0.0484,-0.0249,-0.015,0.0005,0.0061,0.0098,0.016,0.0132,0.0145,0.0147,0.0148,0.0149,0.0149,0.015,-0.0911,-0.0914,-0.0894,-0.0873,-0.0803,-0.0626,-0.0525,-0.033,-0.012,-0.0084,0.0056,0.006,0.0032,-0.0039,-0.0039,-0.0039,-0.004,-0.004,-0.004,-0.1056,-0.1033,-0.1091,-0.1047,-0.1037,-0.0949,-0.0682,-0.0533,-0.024,-0.0061,-0.0057,0.0033,0.0039,0.0025,-0.0042,-0.0042,-0.0041,-0.0041,-0.0041,-0.122,-0.1201,-0.1307,-0.1327,-0.13,-0.1256,-0.0986,-0.0593,-0.037,-0.0206,0.0004,0.0004,0.006,0.0066,0.0055,0.0001,0.0001,0.0001,0.0001,-0.1333,-0.1331,-0.1486,-0.156,-0.1563,-0.1405,-0.1199,-0.0782,-0.0313,-0.008,-0.0077,-0.005,-0.0048,0.0004,0.0011,0.0,-0.007,-0.007,-0.0071,-0.1441,-0.1479,-0.1619,-0.1679,-0.1686,-0.1553,-0.1349,-0.0896,-0.0271,-0.0083,-0.0186,0.0015,0.0066,0.0064,0.0159,0.0164,0.0153,0,0]}],[{"header":{"parameterUnit":"m.s-1","parameterCategory":2,"la1":30.2992,"la2":30.254,"lo1":-89.0895,"lo2":-89.0443,"dy":0.0025,"dx":0.0025,"nx":19,"ny":19,"refTime":"2026-04-06T21:00:00:Z","depth":"4","parameterNumber":2,"parameterNumberName":"U-component_of_CURRENTS"},"data":[0,0,0,-0.1734,-0.1738,-0.192,-0.1921,-0.2019,-0.202,0,0,0,0,0,0,0,0,0,0,0,-0.1672,-0.1674,-0.1734,-0.1739,-0.192,-0.1921,-0.2019,-0.202,0,0,0,0,0,0,0,0,0,0,0,-0.1672,-0.1673,-0.1675,-0.1739,-0.192,-0.1921,-0.2019,-0.1915,0,0,0,0,0,0,0,0,0,0,-0.1756,-0.1717,-0.1673,-0.1675,-0.174,-0.1919,-0.1921,-0.1912,-0.1921,-0.1899,0,-0.1937,0,-0.1979,-0.2023,-0.2024,0,0,0,-0.1738,-0.1709,-0.1759,-0.1675,-0.1742,-0.1919,-0.1838,-0.1918,-0.1929,-0.1912,-0.1939,-0.1944,-0.198,-0.2024,-0.2024,-0.2155,-0.2156,0,0,-0.1728,-0.1701,-0.1752,-0.1766,-0.18,-0.1832,-0.1844,-0.1926,-0.1938,-0.194,-0.1947,-0.1982,-0.2024,-0.2024,-0.2154,-0.2155,0,0,0,-0.17,-0.1693,-0.1744,-0.1761,-0.1804,-0.1837,-0.1851,-0.1935,-0.1953,-0.1949,-0.1983,-0.2024,-0.2025,-0.2153,-0.2154,-0.2239,0,0,0,-0.1694,-0.1677,-0.1739,-0.1724,-0.1803,-0.189,-0.1857,-0.1947,-0.1958,-0.1982,-0.2024,-0.2026,-0.2152,-0.2154,-0.2234,-0.2261,0,0,0,-0.1662,-0.1674,-0.1699,-0.1722,-0.1802,-0.189,-0.1914,-0.1951,-0.1978,-0.2024,-0.2026,-0.2151,-0.2153,-0.223,-0.2254,-0.2293,0,0,0,-0.1621,-0.1666,-0.1698,-0.1771,-0.18,-0.1934,-0.1914,-0.2015,-0.2063,-0.2025,-0.2152,-0.2154,-0.2228,-0.225,-0.2289,-0.1988,0,0,0,-0.165,-0.1669,-0.1714,-0.1748,-0.1871,-0.1909,-0.2043,-0.2094,-0.2087,-0.2111,-0.2116,-0.2236,-0.2254,-0.2292,-0.2136,0,0,0,0,-0.1707,-0.1739,-0.1783,-0.1868,-0.1963,-0.2066,-0.213,-0.2161,-0.2229,-0.2128,-0.2262,-0.2271,-0.2292,-0.2107,-0.2166,-0.2166,-0.2165,-0.2165,-0.2165,-0.1676,-0.1756,-0.1845,-0.1956,-0.205,-0.2185,-0.2265,-0.2318,-0.23,-0.2353,-0.236,-0.2473,-0.2284,-0.2387,-0.2387,-0.2388,-0.2388,-0.2388,-0.2389,-0.1704,-0.1745,-0.1884,-0.1999,-0.213,-0.225,-0.2395,-0.2425,-0.2512,-0.2473,-0.2489,-0.2234,-0.2398,-0.2396,-0.2395,-0.2394,-0.2393,-0.2392,-0.2392,-0.1643,-0.1675,-0.1783,-0.1958,-0.2126,-0.229,-0.2417,-0.2524,-0.2578,-0.2622,-0.2403,-0.2529,-0.2497,-0.2628,-0.2628,-0.2628,-0.2629,-0.2629,-0.2629,-0.1509,-0.1624,-0.1709,-0.1912,-0.2023,-0.2197,-0.2432,-0.2495,-0.2592,-0.2466,-0.2642,-0.2553,-0.2545,-0.2511,-0.2634,-0.2633,-0.2633,-0.2632,-0.2632,-0.1388,-0.1459,-0.156,-0.167,-0.191,-0.2022,-0.2295,-0.237,-0.2411,-0.2359,-0.2373,-0.2384,-0.2319,-0.2317,-0.2271,-0.2328,-0.2324,-0.2321,0,-0.1269,-0.1325,-0.1418,-0.153,-0.1663,-0.1895,-0.1935,-0.2063,-0.2151,-0.2073,-0.2375,-0.2386,-0.2393,-0.2314,-0.2307,-0.2249,0,0,0,-0.117,-0.1223,-0.123,-0.1383,-0.1527,-0.1694,-0.1926,-0.1897,-0.2151,-0.2121,-0.2235,-0.2257,-0.249,-0.2649,-0.2575,-0.2566,-0.2507,0,0]},{"header":{"parameterUnit":"m.s-1","parameterCategory":2,"la1":30.2992,"la2":30.254,"lo1":-89.0895,"lo2":-89.0443,"dy":0.0025,"dx":0.0025,"nx":19,"ny":19,"refTime":"2026-04-06T21:00:00:Z","depth":"4","parameterNumber":3,"parameterNumberName":"V-component_of_CURRENTS"},"data":[0,0,0,-0.0206,-0.0205,-0.0107,-0.0106,0.0065,0.0066,0,0,0,0,0,0,0,0,0,0,0,-0.0241,-0.0241,-0.0206,-0.0205,-0.0107,-0.0106,0.0064,0.0066,0,0,0,0,0,0,0,0,0,0,0,-0.0241,-0.0241,-0.0241,-0.0204,-0.0107,-0.0106,0.0064,-0.0015,0,0,0,0,0,0,0,0,0,0,-0.0114,-0.0166,-0.0241,-0.0241,-0.0204,-0.0107,-0.0106,-0.0019,-0.001,0.0026,0,0.0023,0,0.004,0.0076,0.0077,0,0,0,-0.0181,-0.0174,-0.0147,-0.0241,-0.0204,-0.0108,-0.0144,-0.0015,-0.0004,0.0038,0.0026,0.0032,0.0043,0.0077,0.0078,0.019,0.019,0,0,-0.0186,-0.0216,-0.0155,-0.0141,-0.02,-0.0148,-0.0142,-0.0009,-0.0007,0.0026,0.0036,0.0046,0.0078,0.0079,0.019,0.019,0,0,0,-0.0218,-0.022,-0.0196,-0.0148,-0.0139,-0.0145,-0.0138,-0.0012,-0.0005,0.0038,0.0048,0.0079,0.0081,0.019,0.019,0.0097,0,0,0,-0.022,-0.024,-0.0199,-0.0215,-0.0143,-0.0083,-0.0145,-0.0014,0.0001,0.0047,0.0079,0.0082,0.0189,0.019,0.0099,0.0035,0,0,0,-0.0242,-0.0242,-0.0238,-0.0217,-0.0185,-0.0085,-0.0068,-0.001,0.0007,0.0077,0.0083,0.0189,0.019,0.0101,0.004,0.0066,0,0,0,-0.0264,-0.0295,-0.0239,-0.0263,-0.0187,-0.0147,-0.0069,-0.0023,0.0028,0.008,0.0189,0.019,0.0102,0.0043,0.0068,-0.0024,0,0,0,-0.0321,-0.0303,-0.0315,-0.0264,-0.0268,-0.0158,-0.0131,-0.0031,0.0049,0.0153,0.0156,0.0098,0.004,0.0067,-0.0011,0,0,0,0,-0.0345,-0.036,-0.035,-0.0335,-0.0277,-0.0218,-0.0108,-0.0043,0.0056,0.0076,0.0128,0.0095,0.0115,0.0068,0.019,0.019,0.019,0.019,0.019,-0.0454,-0.0422,-0.045,-0.0403,-0.0365,-0.0247,-0.0184,-0.0069,0.0014,0.0049,0.0042,0.0024,-0.0027,0.0083,0.0082,0.0082,0.0082,0.0081,0.0081,-0.0557,-0.0573,-0.0527,-0.0548,-0.0462,-0.0419,-0.0252,-0.0174,-0.0056,-0.0002,0.0024,-0.0,0.0073,0.0074,0.0076,0.0077,0.0077,0.0078,0.0078,-0.063,-0.0636,-0.0648,-0.0666,-0.0643,-0.0532,-0.0474,-0.0327,-0.016,-0.0136,-0.0116,-0.0018,-0.0033,-0.0098,-0.0098,-0.0098,-0.0098,-0.0098,-0.0099,-0.0699,-0.071,-0.0774,-0.0785,-0.0805,-0.0769,-0.06,-0.0502,-0.0316,-0.0238,-0.0151,-0.0035,-0.0029,-0.004,-0.0101,-0.0101,-0.01,-0.01,-0.01,-0.0777,-0.0788,-0.0893,-0.0941,-0.0987,-0.095,-0.081,-0.0592,-0.0485,-0.0378,-0.0256,-0.0247,-0.0213,-0.0202,-0.0218,-0.0334,-0.0336,-0.0337,0,-0.0825,-0.0838,-0.0988,-0.1087,-0.113,-0.1051,-0.0929,-0.0775,-0.0539,-0.0543,-0.0476,-0.0348,-0.0337,-0.0307,-0.0299,-0.0325,0,0,0,-0.0871,-0.0916,-0.1031,-0.1134,-0.1191,-0.1025,-0.0889,-0.0812,-0.0591,-0.0498,-0.0373,-0.0364,-0.0278,-0.011,-0.0035,-0.0027,-0.0041,0,0]}]]